Detroit, MI

7:09 AM EST on February 11, 2016 (GMT -0500)
Detroit City

Weather History for KDET - March, 2013

Change the Weather History Date:

Wednesday, March 13, 2013

  Actual Average Record
Temperature  
Mean Temperature 30 °F -  
Max Temperature 34 °F 42 °F 73 °F (1990)
Min Temperature 26 °F 28 °F - (1997)
Degree Days  
Heating Degree Days 36    
Moisture  
Dew Point 24 °F    
Average Humidity 80    
Maximum Humidity 100    
Minimum Humidity 50    
Precipitation  
Precipitation 0.01 in - - ()
Sea Level Pressure  
Sea Level Pressure 29.96 in    
Wind  
Wind Speed 10 mph (West)    
Max Wind Speed 17 mph    
Max Gust Speed 30 mph    
Visibility 8 miles    
Events Snow    
Averages and records for this station are not official NWS values.
T = Trace of Precipitation, MM = Missing Value Source: NWS Daily Summary

Daily Weather History Graph

Daily Weather History Graph

Search for Another Location

Airport or City:

Trip Planner

Search our weather history database for the weather conditions in past years. The results will help you decide how hot, cold, wet, or windy it might be!

Date:

Astronomy

Mar. 13, 2013 Rise Set
Actual Time 7:46 AM EDT 7:36 PM EDT
Civil Twilight 7:19 AM EDT 8:04 PM EDT
Nautical Twilight 6:46 AM EDT 8:37 PM EDT
Astronomical Twilight 6:13 AM EDT 9:10 PM EDT
Moon 8:22 AM EDT (3/13) 9:55 PM EDT (3/13)
Length of Visible Light 12h 45m
Length of Day
11h 49m
Waxing Crescent, 4% of the Moon is Illuminated
Mar 13
Waxing Crescent
Mar 19
First Quarter
Mar 27
Full
Apr 3
Last Quarter
Apr 10
New

Hourly Weather History & Observations

Time (EDT) Temp. Windchill Dew Point Humidity Pressure Visibility Wind Dir Wind Speed Gust Speed Precip Events Conditions
12:53 AM 32.0 °F 24.2 °F 28.9 °F 88% 29.91 in 10.0 mi SW 9.2 mph - N/A   Overcast
1:53 AM 30.9 °F 23.5 °F 30.9 °F 100% 29.90 in 2.5 mi SW 8.1 mph - 0.00 in Snow Light Snow
2:04 AM 30.2 °F 23.4 °F 30.2 °F 100% 29.88 in 5.0 mi SW 6.9 mph - 0.00 in Snow Light Snow
2:53 AM 30.9 °F 23.5 °F 30.0 °F 96% 29.89 in 10.0 mi WSW 8.1 mph - 0.00 in   Mostly Cloudy
3:21 AM 30.2 °F 21.3 °F 30.2 °F 100% 29.86 in 10.0 mi SW 10.4 mph - N/A   Overcast
3:53 AM 30.9 °F 23.5 °F 30.0 °F 96% 29.87 in 10.0 mi SW 8.1 mph - N/A   Overcast
4:15 AM 30.2 °F 19.8 °F 30.2 °F 100% 29.84 in 10.0 mi SW 13.8 mph 18.4 mph N/A   Overcast
4:53 AM 30.9 °F 22.8 °F 30.0 °F 96% 29.86 in 10.0 mi WSW 9.2 mph - N/A   Overcast
5:21 AM 30.2 °F 20.8 °F 30.2 °F 100% 29.84 in 2.0 mi WSW 11.5 mph - 0.00 in Snow Light Snow
5:30 AM 30.2 °F 20.8 °F 30.2 °F 100% 29.85 in 3.0 mi West 11.5 mph - 0.00 in Snow Light Snow
5:32 AM 30.2 °F 21.3 °F 30.2 °F 100% 29.85 in 1.0 mi West 10.4 mph - 0.00 in Snow Light Snow
5:42 AM 30.2 °F 25.4 °F 30.2 °F 100% 29.85 in 3.0 mi NW 4.6 mph 17.3 mph 0.01 in Snow Light Snow
5:51 AM 30.2 °F 24.3 °F 28.4 °F 93% 29.86 in 8.0 mi WNW 5.8 mph - 0.01 in Snow Light Snow
5:53 AM 30.0 °F 21.7 °F 28.9 °F 96% 29.88 in 8.0 mi NW 9.2 mph - 0.01 in   Overcast
6:53 AM 28.9 °F 19.2 °F 25.0 °F 85% 29.90 in 10.0 mi WNW 11.5 mph - N/A   Overcast
7:16 AM 28.4 °F 19.1 °F 24.8 °F 86% 29.89 in 10.0 mi WNW 10.4 mph - N/A   Overcast
7:53 AM 28.9 °F 21.9 °F 25.0 °F 85% 29.92 in 10.0 mi West 6.9 mph 16.1 mph N/A   Overcast
8:08 AM 28.4 °F 18.0 °F 23.0 °F 80% 29.90 in 10.0 mi WNW 12.7 mph 18.4 mph N/A   Overcast
8:20 AM 28.4 °F 19.1 °F 24.8 °F 86% 29.90 in 10.0 mi West 10.4 mph - N/A   Overcast
8:53 AM 28.0 °F 17.5 °F 24.1 °F 85% 29.94 in 5.0 mi West 12.7 mph 25.3 mph 0.00 in Snow Light Snow
9:18 AM 26.6 °F 15.7 °F 21.2 °F 80% 29.92 in 9.0 mi WNW 12.7 mph 19.6 mph 0.00 in   Overcast
9:53 AM 28.0 °F 17.0 °F 17.1 °F 63% 29.96 in 10.0 mi NW 13.8 mph 23.0 mph 0.00 in   Scattered Clouds
10:53 AM 28.0 °F 17.0 °F 18.0 °F 66% 29.98 in 10.0 mi West 13.8 mph 24.2 mph N/A   Mostly Cloudy
11:53 AM 28.9 °F 16.9 °F 17.1 °F 61% 30.00 in 10.0 mi WNW 17.3 mph 29.9 mph N/A   Overcast
12:53 PM 27.0 °F 16.1 °F 21.9 °F 81% 30.01 in 2.5 mi WNW 12.7 mph 21.9 mph 0.00 in Snow Light Snow
1:00 PM 28.4 °F 18.0 °F 23.0 °F 80% 29.99 in 3.0 mi WNW 12.7 mph - 0.00 in Snow Light Snow
1:08 PM 28.4 °F 18.5 °F 21.2 °F 74% 29.99 in 8.0 mi West 11.5 mph 24.2 mph 0.00 in Snow Light Snow
1:53 PM 28.9 °F 17.7 °F 18.0 °F 64% 30.03 in 9.0 mi WNW 15.0 mph 26.5 mph 0.00 in   Overcast
2:53 PM 28.9 °F 17.3 °F 21.9 °F 75% 30.04 in 7.0 mi WNW 16.1 mph 25.3 mph 0.00 in Snow Light Snow
3:53 PM 30.0 °F 19.5 °F 21.9 °F 72% 30.05 in 10.0 mi WNW 13.8 mph 23.0 mph 0.00 in   Overcast
4:53 PM 30.9 °F 19.4 °F 21.0 °F 67% 30.07 in 9.0 mi WNW 17.3 mph 26.5 mph 0.00 in Snow Light Snow
5:53 PM 33.1 °F 23.4 °F 18.0 °F 54% 30.08 in 10.0 mi WNW 13.8 mph 20.7 mph 0.00 in   Mostly Cloudy
6:53 PM 33.1 °F 24.4 °F 16.0 °F 50% 30.10 in 10.0 mi NW 11.5 mph 26.5 mph N/A   Partly Cloudy
7:53 PM 30.9 °F 21.2 °F 15.1 °F 52% 30.12 in 10.0 mi WNW 12.7 mph 23.0 mph N/A   Clear
8:53 PM 30.9 °F 23.5 °F 16.0 °F 54% 30.14 in 10.0 mi WNW 8.1 mph 23.0 mph N/A   Clear
9:53 PM 30.0 °F 18.3 °F 16.0 °F 56% 30.15 in 10.0 mi WNW 17.3 mph 26.5 mph N/A   Clear
10:53 PM 28.9 °F 18.2 °F 17.1 °F 61% 30.17 in 10.0 mi WNW 13.8 mph 21.9 mph N/A   Clear
11:53 PM 28.9 °F 20.4 °F 16.0 °F 58% 30.19 in 10.0 mi WNW 9.2 mph 18.4 mph N/A   Clear